Cincinnati Municipal Airport Lunken Field Cincinnati US
ICAO: KLUK
IATA: LUK
Category: Medium
Scheduled Services: No

Elevation: 483 ft
TransAlt. 18000 ft.

Airport Communications:
APP/DEP:121
ATIS:120.25
CLNC DEL:121.9
CTAF:118.7
GND:121.9
DAYTON RDO:122.4
LUNKEN TWR:118.7
UNICOM:122.95

KLUK Zoom In..

Runways:

(A) RW 03L length 3802 ft width 100 ft
---- / hdg 27

(B) RW 03R length 6101 ft width 150 ft
---- / hdg 25

(C) RW 07 length 5128 ft width 100 ft
---- / hdg 66

(D) RW 21L length 6101 ft width 150 ft
ILS 110.90 / hdg 205

(E) RW 21R length 3802 ft width 100 ft
---- / hdg 207

(F) RW 25 length 5128 ft width 100 ft
---- / hdg 246

Location; KLUK
Day. 19 / Time. 20.53 Zulu
* Altimeter: 30.27
* Temperature: 12° c. 53.6°f.
* Wind from: 320° Speed 08 kn with Gusts up to 17 kn.
Dewpoint: 00° c.
Visibility: 10 Statute Miles.
Clouds: Few 5000 ft.

KLUK 192053Z 32008G17KT 10SM FEW050 12/00 A3027 RMK AO2 SLP253 T01170000 50000


Wind From 320°
Speed 08 kn.

  YouTube Music Video
 
jpsmedia.com for Web Design  worldairports.se 2018   terms of use